Regional Weather Roundup
Issued by NWS

Home | Current Version | Previous Version | Graphics & Text | Print | Product List | Glossary On
Versions: 1 2 3 4 5 6 7 8 9 10 11 12 13 14 15 16 17 18 19 20 21 22 23 24 25 26 27
000
ASUS45 KCYS 191910
RWRWY

WYOMING REGIONAL WEATHER ROUNDUP
NATIONAL WEATHER SERVICE CHEYENNE WY
100 PM MDT THU APR 19 2018

NOTE:  "FAIR" INDICATES FEW OR NO CLOUDS BELOW 12,000 FEET
WITH NO SIGNIFICANT WEATHER AND/OR OBSTRUCTIONS TO VISIBILITY.

WYZ001-192000-
YELLOWSTONE NATIONAL PARK

CITY           SKY/WX    TMP DP  RH WIND       PRES   REMARKS
LK YELLOWSTONE   N/A     41  12  30 VRB3      30.07F
W YELLOWSTONE  NOT AVBL

$$
WYZ002>013-054>058-071-098>099-192000-
NORTHERN WYOMING

CITY           SKY/WX    TMP DP  RH WIND       PRES   REMARKS
JACKSON        FAIR      49  17  28 N9        30.00F
CODY           FAIR      51  22  31 E8        30.08F
GREYBULL       FAIR      54  27  35 SE7       30.06F
WORLAND        FAIR      54  23  30 N5        30.05F
SHERIDAN       FAIR      58  27  30 SE21G36   30.07F
BUFFALO        FAIR      54  27  35 S20G25    30.13F
GILLETTE         N/A     54  31  41 SE25G36   30.15F
HULETT         MOCLDY    55  28  35 SE14G23   30.20F
NEWCASTLE      FAIR      54  25  32 SE21G33   30.21F

$$
WYZ014>020-022>026-101>103-192000-
CENTRAL WYOMING

CITY           SKY/WX    TMP DP  RH WIND       PRES   REMARKS
BIG PINEY      FAIR      53   7  15 S9G18     29.99F
PINEDALE       FAIR      52  10  19 S13G23    30.00F
DUBOIS         FAIR      43  14  31 SE12G17   30.05F
LANDER         FAIR      51  23  33 VRB6      30.04F
RIVERTON       FAIR      51  24  34 VRB7      30.06F
CASPER         FAIR      56  24  29 E7        30.07F
DOUGLAS        FAIR      57  22  25 SE30G43   30.11F

$$
WYZ021-027>030-104>119-192000-
SOUTHERN WYOMING

CITY           SKY/WX    TMP DP  RH WIND       PRES   REMARKS
EVANSTON       FAIR      52  13  21 NE10G20   29.92F
KEMMERER       FAIR      52   5  15 NE16G25   29.95F
FORT BRIDGER   FAIR      56   8  14 E13       29.96F
ROCK SPRINGS   FAIR      57   3  11 SE10      29.96F
DIXON          FAIR      62   7  11 SW9       30.01F
RAWLINS        FAIR      60  11  14 E8        30.02F
SARATOGA       FAIR      61   3  10 W6        30.01F
LARAMIE        FAIR      50  12  21 SE32G45   30.09F
CHEYENNE       FAIR      54  18  24 S25G35    30.16F
TORRINGTON     FAIR      59  26  28 SE28G36   30.17F
PINE BLUFFS    FAIR      55  19  24 SE25G33   30.18F

$$




USA.gov is the U.S. government's official web portal to all federal, state and local government web resources and services.